Location: Central Falls
(41.8900°N, 71.3929°W)
Time: 03:03:52
(UTC+00:00)

Vanguard 2 Rocket - Pass Details

Date: 10 December 2023
Orbit: 555 x 3309 km, 32.9° (Epoch: 01 March)

Event Time Altitude Azimuth Distance (km) Brightness Sun altitude
Rises 14:31:06 0° 176° (S) 4,768 11.7 18.8°
Reaches altitude 10° 14:36:30 10° 152° (SSE) 4,377 12.9 19.3°
Maximum altitude 14:41:41 13° 127° (SE) 4,594 11.9 19.8°
Drops below altitude 10° 14:47:49 10° 103° (ESE) 5,402 11.5 20.3°
Sets 14:56:19 0° 82° (E) 6,949 11.6 21.0°
